This is the latest recevied weather packets stored in our database for station/object KC1OEK-13. If no packets are shown the sender has not sent any weather packets the latest 10 day(s).
| Time | Temp. | Humidity | Pressure | Rain* | Wind** | Luminosity | Snow |
|---|---|---|---|---|---|---|---|
| 1777560223 | 8.89° C | 99% | 1009 hPa | 0 mm | - | 49 W/m² | - |
| 1777559919 | 8.89° C | 99% | 1009.3 hPa | 0 mm | - | 50 W/m² | - |
| 1777559614 | 8.89° C | 99% | 1009.1 hPa | 0 mm | - | 57 W/m² | - |
| 1777559313 | 8.89° C | 99% | 1008.9 hPa | 0 mm | - | 62 W/m² | - |
| 1777559008 | 8.89° C | 99% | 1009.1 hPa | 0 mm | - | 48 W/m² | - |
| 1777558704 | 8.89° C | 99% | 1009 hPa | 0 mm | - | 61 W/m² | - |
| 1777558400 | 9.44° C | 99% | 1008.8 hPa | 0 mm | - | 61 W/m² | - |
| 1777558096 | 8.89° C | 99% | 1008.7 hPa | 0 mm | - | 72 W/m² | - |
| 1777557794 | 8.89° C | 99% | 1008.8 hPa | 0 mm | - | 99 W/m² | - |
| 1777557490 | 8.89° C | 99% | 1008.7 hPa | 0 mm | - | 50 W/m² | - |
| 1777557186 | 8.89° C | 99% | 1008.6 hPa | 0 mm | - | 92 W/m² | - |
| 1777556882 | 8.89° C | 99% | 1008.7 hPa | 0 mm | - | 64 W/m² | - |
| 1777556578 | 8.89° C | 99% | 1008.9 hPa | 0 mm | - | 67 W/m² | - |
| 1777556278 | 8.89° C | 99% | 1008.9 hPa | 0 mm | - | 42 W/m² | - |
| 1777555974 | 8.89° C | 99% | 1009 hPa | 0 mm | - | 54 W/m² | - |
| 1777555669 | 8.89° C | 99% | 1009 hPa | 0 mm | - | 49 W/m² | - |
| 1777555366 | 8.89° C | 99% | 1008.8 hPa | 0 mm | - | 45 W/m² | - |
| 1777555062 | 8.89° C | 99% | 1008.7 hPa | 0 mm | - | 54 W/m² | - |
| 1777554760 | 8.89° C | 99% | 1008.9 hPa | 0 mm | - | 36 W/m² | - |
| 1777554457 | 8.89° C | 99% | 1008.9 hPa | 0 mm | - | 36 W/m² | - |
| 1777554153 | 8.89° C | 99% | 1008.9 hPa | 0 mm | - | 67 W/m² | - |
| 1777553851 | 8.89° C | 99% | 1008.9 hPa | 0 mm | - | 83 W/m² | - |
| 1777553547 | 8.89° C | 99% | 1008.9 hPa | 0 mm | - | 82 W/m² | - |
| 1777553242 | 8.33° C | 99% | 1008.9 hPa | 0 mm | - | 73 W/m² | - |
| 1777552939 | 8.89° C | 99% | 1008.9 hPa | 0 mm | - | 42 W/m² | - |
* Rain latest hour (hover to see other rain measurements)
** Current wind speed in m/s (hover to see current wind gust speed)